Total_Precipitation_Accumulation
0.09 0.17 0.20 0.21 0.20 0.18 0.13 0.12 0.17 0.22 0.34 0.47 0.58 0.68 0.57 0.54 0.59 0.59 0.44 0.35 0.31 0.28 0.36 0.48 0.53 0.52 0.53 0.61 0.72 0.81 0.85 0.81 0.75 0.77 0.82 0.85 0.87 0.88 0.90 0.95 0.98 1.12 1.16 1.25
0.11 0.14 0.14 0.16 0.18 0.15 0.11 0.09 0.09 0.18 0.34 0.49 0.61 0.63 0.58 0.48 0.45 0.56 0.49 0.35 0.31 0.32 0.40 0.47 0.49 0.48 0.44 0.49 0.59 0.70 0.79 0.85 0.89 0.86 0.81 0.84 0.87 0.87 0.90 0.96 1.06 1.17 1.22 1.31
0.21 0.17 0.18 0.25 0.20 0.17 0.14 0.12 0.13 0.23 0.35 0.51 0.63 0.55 0.58 0.55 0.46 0.44 0.39 0.33 0.40 0.43 0.43 0.44 0.46 0.44 0.43 0.43 0.54 0.74 0.85 0.86 0.96 1.04 0.96 1.02 1.05 1.03 1.03 1.07 1.18 1.24 1.36 1.42
0.28 0.31 0.37 0.28 0.21 0.21 0.23 0.24 0.22 0.26 0.37 0.58 0.74 0.63 0.56 0.56 0.53 0.46 0.36 0.35 0.37 0.38 0.37 0.39 0.41 0.44 0.45 0.47 0.53 0.72 0.89 0.94 1.10 1.25 1.17 1.19 1.20 1.22 1.27 1.34 1.37 1.46 1.51 1.45
0.42 0.43 0.45 0.36 0.32 0.34 0.42 0.50 0.43 0.44 0.56 0.61 0.57 0.54 0.56 0.51 0.45 0.42 0.37 0.36 0.34 0.36 0.38 0.40 0.44 0.47 0.50 0.63 0.74 0.84 0.97 1.11 1.28 1.44 1.51 1.49 1.45 1.54 1.58 1.59 1.63 1.71 1.77 1.73
0.56 0.62 0.70 0.63 0.51 0.47 0.59 0.89 0.73 0.59 0.61 0.60 0.57 0.68 0.66 0.47 0.42 0.37 0.33 0.34 0.37 0.43 0.44 0.43 0.49 0.54 0.61 0.76 0.95 1.06 1.11 1.14 1.25 1.43 1.54 1.58 1.59 1.73 1.86 1.87 1.86 1.87 1.78 1.65
0.63 0.73 0.71 0.63 0.57 0.61 1.02 1.30 0.94 0.81 0.82 0.85 0.82 0.75 0.62 0.48 0.46 0.41 0.35 0.37 0.41 0.46 0.53 0.58 0.63 0.72 0.84 0.93 1.03 1.06 1.07 1.11 1.20 1.43 1.71 1.75 1.81 1.88 1.97 2.00 2.01 2.00 1.89 1.78
0.74 0.96 1.04 0.67 0.61 0.93 1.22 1.15 1.18 1.13 1.10 1.04 0.89 0.70 0.55 0.48 0.47 0.40 0.38 0.42 0.44 0.47 0.53 0.61 0.71 0.87 0.97 0.99 1.01 1.06 1.08 1.15 1.29 1.54 1.65 1.74 1.89 1.94 2.09 2.18 2.14 2.08 2.06 1.92
0.94 1.12 1.02 0.81 0.87 0.91 0.98 1.09 1.14 1.07 1.05 0.99 0.92 0.76 0.62 0.52 0.47 0.45 0.44 0.45 0.50 0.52 0.56 0.64 0.75 0.94 1.08 1.07 1.07 1.07 1.08 1.13 1.24 1.38 1.48 1.62 1.69 1.68 1.77 1.88 1.89 1.90 1.89 1.83
1.26 1.24 1.07 0.93 0.86 0.87 0.83 0.88 0.88 0.83 0.77 0.75 0.71 0.63 0.51 0.43 0.46 0.52 0.58 0.55 0.58 0.58 0.62 0.66 0.72 0.89 1.03 1.05 1.08 1.08 1.04 1.01 1.10 1.28 1.36 1.43 1.55 1.57 1.66 1.73 1.78 1.85 1.87 1.80
1.49 1.47 1.28 1.15 1.00 0.97 0.83 0.82 0.79 0.74 0.69 0.62 0.53 0.51 0.47 0.40 0.38 0.41 0.48 0.49 0.51 0.54 0.58 0.61 0.67 0.85 0.99 1.02 1.06 1.09 1.06 1.02 1.08 1.19 1.28 1.36 1.48 1.56 1.58 1.60 1.59 1.63 1.67 1.65
1.50 1.39 1.31 1.28 0.99 0.93 0.96 0.87 0.75 0.71 0.65 0.58 0.49 0.43 0.41 0.38 0.35 0.34 0.40 0.47 0.50 0.54 0.56 0.55 0.60 0.72 0.82 1.00 1.15 1.20 1.12 1.05 1.04 1.05 1.14 1.21 1.30 1.30 1.22 1.21 1.19 1.17 1.20 1.15
0.98 1.04 1.11 1.19 1.02 0.89 0.91 0.86 0.78 0.73 0.68 0.61 0.52 0.41 0.31 0.27 0.26 0.30 0.39 0.50 0.55 0.60 0.61 0.62 0.65 0.72 0.80 0.95 1.17 1.33 1.30 1.14 1.02 0.97 0.99 1.06 1.18 1.25 1.27 1.16 1.09 1.03 1.00 0.90
0.97 1.02 1.08 1.04 1.01 0.98 0.85 0.78 0.73 0.70 0.64 0.56 0.50 0.42 0.31 0.26 0.26 0.33 0.47 0.59 0.60 0.62 0.64 0.66 0.70 0.75 0.84 0.98 1.16 1.27 1.26 1.15 1.00 0.94 0.95 0.94 1.01 1.11 1.17 1.24 1.22 1.06 0.91 0.81
1.08 1.05 1.01 0.95 0.89 0.91 0.88 0.82 0.70 0.65 0.56 0.52 0.47 0.42 0.34 0.31 0.33 0.40 0.50 0.67 0.80 0.81 0.72 0.69 0.75 0.78 0.83 0.97 1.10 1.18 1.17 1.08 0.97 0.93 0.94 0.86 0.81 0.88 0.96 1.04 1.14 1.10 0.92 0.82
0.93 0.90 0.86 0.84 0.84 0.82 0.78 0.76 0.68 0.65 0.52 0.47 0.45 0.43 0.38 0.34 0.35 0.42 0.55 0.73 0.98 1.09 0.99 0.86 0.79 0.78 0.83 0.97 1.05 1.00 0.94 0.83 0.80 0.83 0.82 0.78 0.76 0.80 0.90 0.99 1.07 1.06 0.94 0.82
0.74 0.75 0.71 0.68 0.69 0.75 0.70 0.59 0.49 0.48 0.47 0.44 0.42 0.41 0.41 0.44 0.49 0.61 0.71 0.80 0.87 0.89 0.89 0.84 0.74 0.70 0.79 0.91 0.97 0.87 0.74 0.62 0.52 0.58 0.68 0.73 0.76 0.83 0.95 1.02 1.04 0.97 0.82 0.68
0.49 0.53 0.55 0.54 0.52 0.57 0.58 0.49 0.43 0.39 0.38 0.40 0.41 0.41 0.44 0.53 0.71 0.91 0.94 0.89 0.84 0.74 0.67 0.65 0.59 0.60 0.70 0.76 0.84 0.82 0.69 0.57 0.48 0.49 0.56 0.61 0.72 0.85 0.93 0.94 0.88 0.82 0.74 0.65
0.34 0.39 0.42 0.43 0.42 0.41 0.41 0.41 0.41 0.38 0.34 0.38 0.45 0.47 0.48 0.55 0.75 0.96 0.99 1.04 1.00 0.84 0.64 0.52 0.49 0.51 0.61 0.67 0.74 0.77 0.62 0.48 0.39 0.39 0.42 0.45 0.58 0.76 0.82 0.77 0.69 0.67 0.67 0.65
0.31 0.33 0.35 0.34 0.34 0.31 0.28 0.29 0.30 0.33 0.34 0.41 0.48 0.52 0.56 0.61 0.76 0.96 1.02 1.05 0.99 0.80 0.58 0.46 0.43 0.42 0.47 0.60 0.68 0.66 0.53 0.40 0.29 0.26 0.30 0.40 0.55 0.72 0.74 0.66 0.62 0.64 0.65 0.67
0.27 0.28 0.30 0.30 0.32 0.28 0.23 0.23 0.26 0.35 0.41 0.43 0.47 0.56 0.62 0.65 0.74 0.92 1.12 1.13 0.87 0.61 0.46 0.42 0.40 0.38 0.43 0.58 0.62 0.58 0.49 0.40 0.31 0.26 0.30 0.43 0.61 0.72 0.65 0.59 0.58 0.59 0.57 0.61
0.26 0.28 0.30 0.29 0.29 0.27 0.24 0.24 0.28 0.38 0.49 0.49 0.46 0.49 0.59 0.68 0.75 0.80 0.88 1.01 0.88 0.65 0.45 0.38 0.37 0.39 0.44 0.56 0.56 0.49 0.45 0.42 0.36 0.32 0.37 0.49 0.62 0.66 0.61 0.57 0.60 0.57 0.56 0.59
0.26 0.26 0.26 0.24 0.24 0.23 0.23 0.25 0.29 0.41 0.57 0.58 0.54 0.52 0.59 0.68 0.77 0.93 0.90 0.79 0.78 0.69 0.50 0.36 0.33 0.38 0.45 0.51 0.52 0.45 0.46 0.44 0.38 0.36 0.39 0.46 0.52 0.55 0.57 0.59 0.60 0.56 0.56 0.56
0.26 0.22 0.22 0.23 0.23 0.24 0.27 0.30 0.32 0.40 0.50 0.49 0.41 0.38 0.47 0.62 0.65 0.66 0.74 0.79 0.75 0.69 0.54 0.40 0.31 0.33 0.41 0.44 0.48 0.50 0.53 0.47 0.39 0.34 0.35 0.41 0.48 0.53 0.61 0.65 0.64 0.61 0.59 0.56
0.26 0.24 0.22 0.24 0.29 0.33 0.35 0.38 0.42 0.48 0.57 0.49 0.36 0.28 0.33 0.48 0.62 0.58 0.59 0.64 0.66 0.62 0.52 0.44 0.38 0.39 0.42 0.48 0.53 0.55 0.51 0.41 0.34 0.33 0.37 0.47 0.51 0.55 0.61 0.63 0.61 0.62 0.63 0.62
0.28 0.27 0.27 0.28 0.32 0.35 0.37 0.44 0.52 0.60 0.71 0.66 0.47 0.31 0.29 0.35 0.45 0.52 0.57 0.61 0.64 0.65 0.55 0.47 0.44 0.47 0.50 0.55 0.55 0.51 0.45 0.40 0.38 0.40 0.44 0.50 0.52 0.54 0.59 0.61 0.57 0.60 0.62 0.62
0.29 0.26 0.28 0.30 0.34 0.33 0.32 0.37 0.47 0.63 0.80 0.81 0.58 0.34 0.30 0.35 0.44 0.51 0.55 0.62 0.67 0.69 0.61 0.50 0.47 0.49 0.52 0.53 0.51 0.45 0.38 0.34 0.37 0.40 0.41 0.42 0.46 0.54 0.61 0.63 0.58 0.57 0.59 0.58